Location: Krasnoyarskiy Pitomnik
(51.1333°N, 71.6167°E)
Time: 12:33:00
(UTC+00:00)

Tiros 1 despin weight - Pass Details

Date: 13 April 2024
Orbit: 578 x 621 km, 48.2° (Epoch: 21 May)

Event Time Altitude Azimuth Distance (km) Brightness Sun altitude
Rises 15:23:51 0° 278° (W) 2,895 ? -11.9°
Reaches altitude 10° 15:26:18 10° 269° (W) 1,991 ? -12.2°
Maximum altitude 15:30:29 36° 204° (SSW) 994 ? -12.7°
Enters shadow 15:33:20 18° 147° (SSE) 1,539 ? -13.1°
